Location: Arborea
(39.7744°N, 8.5819°E)
Time: 04:01:59
(UTC+00:00)

USA 229 - Pass Details

Date: 01 June 2022
Orbit: 938 x 1274 km, 63.4° (Epoch: 24 May)

Event Time Altitude Azimuth Distance (km) Brightness Sun altitude
Rises 00:16:34 0° 316° (NW) 4,051 7.1 -27.0°
Reaches altitude 10° 00:19:35 10° 306° (NW) 3,132 6.4 -26.8°
Enters shadow 00:25:32 30° 254° (WSW) 2,055 4.9 -26.5°
